File timestamp: Sun Aug 28 00:00:00 2016, Internal temp: 22.430419921875
1472342401.006, 0.0607957765460014, -0.0482792928814888, 0.0501839965581894, 33281, 32166, 23220, 39.2006454467773
1472342402.006, 0.0553434900939465, -0.0494039244949818, 0.0508175417780876, 33294, 32162, 23214, NaN
1472342403.006, 0.0488248094916344, -0.0492538101971149, 0.051460612565279, 33292, 32161, 23232, NaN
1472342404.006, 0.0419745743274689, -0.0494251921772957, 0.051151342689991, 33286, 32161, 23219, NaN
1472342405.006, 0.035491868853569, -0.0492362193763256, 0.0517749413847923, 33277, 32160, 23215, NaN
1472342406.006, 0.0279153641313314, -0.0496371276676655, 0.0524141937494278, 33264, 32177, 23227, NaN
1472342407.006, 0.0195650085806847, -0.0497968010604382, 0.0513602793216705, 33275, 32178, 23228, NaN
1472342408.006, 0.0120615540072322, -0.0500088445842266, 0.0517726428806782, 33287, 32177, 23227, NaN
1472342409.006, 0.00608282908797264, -0.0501498840749264, 0.0518696419894695, 33288, 32172, 23223, NaN
1472342410.006, -0.000187928060768172, -0.0507019646465778, 0.0516165234148502, 33303, 32158, 23216, NaN
1472342411.006, -0.00545832281932235, -0.0505301654338837, 0.05188824608922, 33299, 32169, 23217, NaN
1472342412.006, -0.0101156523451209, -0.0511046908795834, 0.052026130259037, 33300, 32173, 23215, NaN
1472342413.006, -0.0135913016274571, -0.0511623173952103, 0.0522573031485081, 33292, 32162, 23223, NaN
1472342414.006, -0.0159201864153147, -0.0520966462790966, 0.0523975305259228, 33292, 32171, 23225, NaN
1472342415.006, -0.0179459638893604, -0.052433256059885, 0.0530741699039936, 33294, 32176, 23222, NaN
1472342416.006, -0.0199074503034353, -0.0527757816016674, 0.0537021681666374, 33286, 32162, 23220, NaN
1472342417.016, -0.0205145068466663, -0.0519823916256428, 0.0534132719039917, 33284, 32180, 23227, NaN
1472342418.016, -0.0203546974807978, -0.0519485808908939, 0.0537614785134792, 33283, 32155, 23216, NaN
1472342419.016, -0.0198944676667452, -0.0520500652492046, 0.0528493002057076, 33288, 32167, 23217, NaN
1472342419.016, -0.019254369661212, -0.0524598807096481, 0.053212434053421, 33296, 32165, 23222, NaN
1472342420.024, -0.0193980894982815, -0.0531442202627659, 0.0539688691496849, 33274, 32186, 23221, NaN
1472342421.024, -0.019784040749073, -0.0533257015049458, 0.0535729639232159, 33289, 32161, 23221, NaN
1472342422.024, -0.0198237039148808, -0.053342092782259, 0.0535095036029816, 33284, 32173, 23227, NaN
1472342423.024, -0.0197360999882221, -0.0529973320662975, 0.0535098388791084, 33291, 32172, 23220, NaN
1472342423.024, -0.0204518884420395, -0.0532704889774323, 0.0522007122635841, 33286, 32171, 23217, NaN
1472342424.03, -0.0206882953643799, -0.0530102998018265, 0.0519084334373474, 33280, 32165, 23240, NaN
1472342425.03, -0.0212294980883598, -0.053086556494236, 0.0514165200293064, 33285, 32174, 23221, NaN
1472342426.03, -0.0207075644284487, -0.0526175275444984, 0.0510762743651867, 33289, 32174, 23218, NaN
1472342427.03, -0.0202234350144863, -0.0531560890376568, 0.0523734949529171, 33286, 32174, 23219, NaN
1472342427.03, -0.0191628579050303, -0.0530705377459526, 0.0519785955548286, 33282, 32165, 23215, NaN
1472342428.034, -0.0176644418388605, -0.0534674525260925, 0.0527196899056435, 33281, 32165, 23236, NaN
1472342429.034, -0.0170801989734173, -0.0525851212441921, 0.0529993288218975, 33292, 32162, 23222, NaN
1472342430.034, -0.0162482336163521, -0.0534958988428116, 0.0530092492699623, 33285, 32173, 23231, NaN
1472342431.034, -0.0144961075857282, -0.053546354174614, 0.0522278361022472, 33298, 32169, 23210, NaN
1472342432.034, -0.0110349413007498, -0.0535328239202499, 0.0520454868674278, 33283, 32172, 23226, NaN
1472342433.034, -0.00727971270680428, -0.053664855659008, 0.0527713596820831, 33282, 32174, 23219, NaN
1472342434.034, -0.00442505860701203, -0.0534468330442905, 0.0525354146957397, 33276, 32171, 23222, NaN
1472342435.034, -0.00242810137569904, -0.0534245222806931, 0.0524562820792198, 33289, 32168, 23233, NaN
1472342436.034, -0.000681701698340476, -0.0541249066591263, 0.0529403202235699, 33298, 32164, 23215, NaN
1472342437.034, 0.000983302597887814, -0.0546805523335934, 0.0527426488697529, 33284, 32167, 23219, NaN
1472342438.034, 0.00176970509346575, -0.0544191859662533, 0.0516936630010605, 33296, 32169, 23212, NaN
1472342439.034, 0.00359444366768003, -0.0538075529038906, 0.0523284263908863, 33281, 32175, 23226, NaN
1472342440.034, 0.00830131955444813, -0.0544683262705803, 0.0511800087988377, 33282, 32169, 23219, NaN
1472342441.034, 0.0157549194991589, -0.0548487491905689, 0.051302146166563, 33291, 32171, 23214, NaN
1472342442.034, 0.0264280252158642, -0.0544437877833843, 0.0502895787358284, 33300, 32159, 23221, NaN
1472342443.044, 0.0400378778576851, -0.0543676391243935, 0.0498272851109505, 33286, 32159, 23218, NaN
1472342444.044, 0.0561636127531528, -0.054970595985651, 0.0497864112257957, 33293, 32167, 23212, NaN
1472342445.044, 0.0739395618438721, -0.0540689416229725, 0.0494930148124695, 33279, 32165, 23217, NaN
1472342445.044, 0.0925827696919441, -0.0533153712749481, 0.0489176362752914, 33286, 32162, 23222, NaN
1472342446.052, 0.106006480753422, -0.0530881360173225, 0.0488894097507, 33287, 32171, 23215, NaN
1472342447.052, 0.0712669491767883, -0.0527077317237854, 0.0485704876482487, 33298, 32163, 23215, NaN
1472342448.052, 0.0416044220328331, -0.0532326437532902, 0.0480273701250553, 33285, 32162, 23218, NaN
1472342449.052, 0.016619136556983, -0.0533331483602524, 0.0482107289135456, 33302, 32166, 23225, NaN
1472342449.052, -0.00408245204016566, -0.0524647682905197, 0.0481027327477932, 33289, 32175, 23222, NaN
1472342450.058, -0.0208859257400036, -0.0532188937067986, 0.0478626526892185, 33294, 32167, 23215, NaN
1472342451.058, -0.0341670773923397, -0.0530889295041561, 0.0476682335138321, 33273, 32172, 23229, NaN
1472342452.058, -0.0442900955677032, -0.052756056189537, 0.0475498512387276, 33302, 32184, 23212, NaN
1472342453.058, -0.0516058430075645, -0.053097203373909, 0.0481988713145256, 33292, 32167, 23218, NaN
1472342454.058, -0.0564502291381359, -0.0535061694681644, 0.0480075180530548, 33284, 32158, 23224, NaN
1472342455.058, -0.0591428168118, -0.0531848333775997, 0.0475185215473175, 33294, 32164, 23221, NaN
1472342456.058, -0.0599855557084084, -0.0523321516811848, 0.0470697805285454, 33291, 32168, 23229, 39.725269317627
1472342457.058, -0.0592617988586426, -0.0512367598712444, 0.0468565337359905, 33294, 32172, 23226, NaN
1472342458.058, -0.0572355128824711, -0.0515632815659046, 0.0469591841101646, 33283, 32162, 23217, NaN
1472342459.058, -0.0541507340967655, -0.0518989711999893, 0.0471399314701557, 33288, 32165, 23216, NaN
1472342460.058, -0.050231259316206, -0.0512028820812702, 0.0475877895951271, 33280, 32157, 23219, NaN
1472342461.058, -0.0456805638968945, -0.0515285506844521, 0.0475943200290203, 33289, 32169, 23234, NaN
1472342462.058, -0.0406819134950638, -0.051379632204771, 0.0475350506603718, 33293, 32171, 23233, NaN
1472342463.058, -0.0353987030684948, -0.0519457794725895, 0.047239676117897, 33284, 32165, 23218, NaN
1472342464.058, -0.0299749430269003, -0.0517062023282051, 0.0468093380331993, 33302, 32169, 23213, NaN
1472342465.058, -0.0245359316468239, -0.0511251352727413, 0.0473496913909912, 33274, 32175, 23211, NaN
1472342466.058, -0.0191890522837639, -0.0505220592021942, 0.0476677976548672, 33283, 32168, 23210, NaN
1472342467.058, -0.0140246944501996, -0.0496131218969822, 0.0473493523895741, 33285, 32173, 23233, NaN
1472342468.058, -0.00911726430058479, -0.0492863394320011, 0.0469568334519863, 33292, 32172, 23221, NaN
1472342469.058, -0.00452628266066313, -0.0492902547121048, 0.0483384355902672, 33283, 32173, 23225, NaN
1472342470.058, -0.0002975266543217, -0.048957958817482, 0.0486472658813, 33285, 32160, 23216, NaN
1472342471.066, 0.00353578338399529, -0.0488876104354858, 0.0490788146853447, 33288, 32175, 23224, NaN
1472342472.066, 0.00695178471505642, -0.0484945997595787, 0.0489441491663456, 33289, 32170, 23223, NaN
1472342473.066, 0.00993876811116934, -0.0481639727950096, 0.0488091073930264, 33291, 32165, 23211, NaN
1472342473.066, 0.0124939894303679, -0.047625869512558, 0.048518180847168, 33279, 32163, 23222, NaN
1472342474.074, 0.0143042951822281, -0.0475270785391331, 0.0490793250501156, 33293, 32163, 23227, NaN
1472342475.074, 0.0144234960898757, -0.0482775494456291, 0.0491583868861198, 33293, 32165, 23219, NaN
1472342476.074, 0.0127260591834784, -0.0488599836826324, 0.0492399930953979, 33278, 32171, 23215, NaN
1472342477.074, 0.0102491583675146, -0.0487860850989819, 0.0484882891178131, 33292, 32165, 23227, NaN
1472342477.074, 0.00717759132385254, -0.0491486936807632, 0.0481591485440731, 33284, 32158, 23230, NaN
1472342478.08, 0.00420258892700076, -0.0487535893917084, 0.0486115589737892, 33292, 32157, 23218, NaN
1472342479.08, 0.00252141174860299, -0.0485976971685886, 0.0487232506275177, 33287, 32167, 23220, NaN
1472342480.08, 0.00144894781988114, -0.0495765805244446, 0.0487831681966782, 33288, 32161, 23226, NaN
1472342481.08, -0.000232175341807306, -0.0494600906968117, 0.0488823726773262, 33294, 32174, 23217, NaN
1472342481.08, -0.00178262195549905, -0.0501935034990311, 0.0485276095569134, 33281, 32163, 23218, NaN
1472342482.084, -0.00265089049935341, -0.0500648692250252, 0.048590961843729, 33279, 32173, 23226, NaN
1472342483.084, -0.00448041409254074, -0.0498608909547329, 0.0487034693360329, 33290, 32171, 23222, NaN
1472342484.084, -0.00489332713186741, -0.0496632270514965, 0.0489913374185562, 33282, 32175, 23230, NaN
1472342485.084, -0.00420406181365252, -0.0495230630040169, 0.0494215711951256, 33273, 32168, 23237, NaN
1472342485.084, -0.00258299522101879, -0.0499505139887333, 0.0504694171249866, 33296, 32163, 23230, NaN
1472342486.086, -0.000189032070920803, -0.0492691248655319, 0.0508795604109764, 33277, 32170, 23224, NaN
1472342487.086, 0.00293704052455723, -0.0489770546555519, 0.0505217686295509, 33279, 32167, 23220, NaN
1472342488.086, 0.00658121565356851, -0.0494800545275211, 0.0511626750230789, 33281, 32172, 23233, NaN
1472342489.086, 0.0113266324624419, -0.0489799380302429, 0.0510099940001965, 33284, 32177, 23223, NaN
1472342490.086, 0.016142912209034, -0.049332395195961, 0.0510099865496159, 33301, 32162, 23221, NaN
1472342491.086, 0.0203504525125027, -0.0484887883067131, 0.0516858957707882, 33292, 32176, 23216, NaN
1472342492.086, 0.0243234541267157, -0.0485523603856564, 0.0514964163303375, 33286, 32166, 23216, NaN
1472342493.086, 0.0278278887271881, -0.048211794346571, 0.0512680336833, 33276, 32168, 23220, NaN
1472342494.086, 0.0298948902636766, -0.0478088185191154, 0.0511781834065914, 33287, 32165, 23220, NaN
1472342495.086, 0.0305865220725536, -0.0477429628372192, 0.0515664480626583, 33292, 32181, 23212, NaN
1472342496.094, 0.0316571705043316, -0.0474959351122379, 0.0513438954949379, 33300, 32168, 23217, NaN
1472342497.094, 0.0329581685364246, -0.047253891825676, 0.0520976409316063, 33296, 32169, 23208, NaN
1472342498.094, 0.034992977976799, -0.0478402711451054, 0.0513743199408054, 33302, 32162, 23211, NaN
1472342498.094, 0.0377820916473866, -0.0481561310589314, 0.0508232824504375, 33292, 32175, 23221, NaN
1472342499.102, 0.0406273156404495, -0.0478480793535709, 0.0512193106114864, 33279, 32161, 23212, NaN
1472342500.102, 0.0437936000525951, -0.0480210371315479, 0.0510904118418694, 33285, 32170, 23223, NaN
1472342501.102, 0.0468910448253155, -0.0480006411671638, 0.0506774187088013, 33288, 32176, 23225, NaN
1472342502.102, 0.0506698936223984, -0.0482290051877499, 0.0502755604684353, 33300, 32165, 23212, NaN
1472342503.102, 0.05319494754076, -0.0478338673710823, 0.0499914959073067, 33271, 32176, 23235, NaN
1472342504.102, 0.055924080312252, -0.0476587228477001, 0.0506497099995613, 33276, 32184, 23218, NaN
1472342505.102, 0.0575037263333797, -0.047344695776701, 0.0509849190711975, 33281, 32163, 23222, NaN
1472342506.102, 0.0565239302814007, -0.0471722707152367, 0.0515500456094742, 33284, 32165, 23223, NaN
1472342507.102, 0.0327454172074795, -0.047202430665493, 0.0513808503746986, 33290, 32166, 23212, NaN
1472342508.102, 0.012461663223803, -0.04754738509655, 0.05136938393116, 33284, 32178, 23221, NaN
1472342509.102, -0.00457782717421651, -0.0479030460119247, 0.0512190461158752, 33290, 32171, 23207, NaN
1472342510.102, -0.0186257027089596, -0.0483210049569607, 0.0509900897741318, 33277, 32168, 23208, NaN
1472342511.102, -0.0299347043037415, -0.0487226061522961, 0.0508834570646286, 33293, 32174, 23220, 37.2665824890137
1472342512.102, -0.0387555919587612, -0.0489594638347626, 0.0502517409622669, 33285, 32171, 23225, NaN
1472342513.102, -0.0453351959586143, -0.0490733832120895, 0.0498690828680992, 33284, 32160, 23227, NaN
1472342514.102, -0.0499145053327084, -0.0487328730523586, 0.0490844622254372, 33290, 32177, 23209, NaN
1472342515.1, -0.0527269914746284, -0.0486871339380741, 0.0478902384638786, 33273, 32164, 23220, NaN
1472342516.1, -0.0539970435202122, -0.0486082546412945, 0.0478628054261208, 33294, 32171, 23219, NaN
1472342517.1, -0.0539386346936226, -0.0481666177511215, 0.0480095967650414, 33291, 32173, 23220, NaN
1472342518.1, -0.052754171192646, -0.0477378331124783, 0.0475604645907879, 33282, 32167, 23213, NaN
1472342519.1, -0.0506335720419884, -0.0474622659385204, 0.0472701787948608, 33290, 32178, 23209, NaN
1472342520.1, -0.0477535538375378, -0.0480006895959377, 0.0471664890646935, 33273, 32166, 23222, NaN
1472342521.1, -0.0442771129310131, -0.0475061684846878, 0.0460129529237747, 33281, 32174, 23230, NaN
1472342522.1, -0.0403532274067402, -0.0469488389790058, 0.0457147099077702, 33279, 32163, 23230, NaN
1472342523.1, -0.0361167080700397, -0.047684159129858, 0.0454051941633224, 33296, 32175, 23208, NaN
1472342524.108, -0.0316882766783237, -0.0474048852920532, 0.04555793851614, 33299, 32161, 23228, NaN
1472342525.108, -0.027174761518836, -0.0474173314869404, 0.0449819937348366, 33286, 32181, 23224, NaN
1472342526.108, -0.0226694401353598, -0.0472510941326618, 0.0444036200642586, 33290, 32168, 23219, NaN
1472342527.108, -0.0182525310665369, -0.0470797903835773, 0.0446162261068821, 33288, 32178, 23231, NaN
1472342527.108, -0.0139917666092515, -0.0477437190711498, 0.0448784977197647, 33288, 32163, 23212, NaN
1472342528.116, -0.00994305964559317, -0.0475216656923294, 0.0446924492716789, 33293, 32154, 23212, NaN
1472342529.116, -0.00615125941112638, -0.0475470833480358, 0.0449505038559437, 33308, 32176, 23226, NaN
1472342530.116, -0.0026509421877563, -0.0471642650663853, 0.0453137941658497, 33297, 32166, 23223, NaN
1472342531.116, 0.000513779988978058, -0.0474645644426346, 0.0452892370522022, 33283, 32163, 23217, NaN
1472342531.116, 0.0031037803273648, -0.0474331714212894, 0.044514074921608, 33274, 32171, 23217, NaN
1472342532.122, 0.00595266558229923, -0.0472308769822121, 0.0447083562612534, 33286, 32181, 23210, NaN
1472342533.122, 0.00810896418988705, -0.0470698289573193, 0.0450190640985966, 33267, 32170, 23232, NaN
1472342534.122, 0.00979133229702711, -0.0472421944141388, 0.0464093089103699, 33279, 32172, 23217, NaN
1472342535.122, 0.0112454015761614, -0.0470943413674831, 0.0470190495252609, 33293, 32168, 23215, NaN
1472342535.122, 0.0126613276079297, -0.0474082604050636, 0.0472786091268063, 33291, 32158, 23211, NaN
1472342536.126, 0.0135183613747358, -0.0479395017027855, 0.0473775379359722, 33289, 32178, 23220, NaN
1472342537.126, 0.0140967452898622, -0.0480956844985485, 0.047945361584425, 33300, 32163, 23215, NaN
1472342538.126, 0.0144166816025972, -0.0479932948946953, 0.048329271376133, 33284, 32178, 23221, NaN
1472342539.126, 0.0141651388257742, -0.0486767888069153, 0.0491198375821114, 33291, 32180, 23204, NaN
1472342539.126, 0.0137844840064645, -0.0488869175314903, 0.0496747754514217, 33291, 32165, 23224, NaN
1472342540.128, 0.0133481556549668, -0.0484734550118446, 0.0503008738160133, 33268, 32164, 23229, NaN
1472342541.128, 0.0125574860721827, -0.0487730018794537, 0.0505205579102039, 33283, 32176, 23222, NaN
1472342542.128, 0.011565575376153, -0.048587292432785, 0.0510277673602104, 33283, 32164, 23228, NaN
1472342543.128, 0.0108839692547917, -0.0482822358608246, 0.0510431714355946, 33299, 32174, 23211, NaN
1472342543.128, 0.00997144170105457, -0.0481705330312252, 0.0509128235280514, 33286, 32169, 23227, NaN
1472342544.128, 0.00911641400307417, -0.0481997989118099, 0.0505114383995533, 33281, 32155, 23235, NaN
1472342545.128, 0.00806910172104836, -0.0483157560229301, 0.0508123002946377, 33293, 32175, 23215, NaN
1472342546.128, 0.00636363588273525, -0.0474701970815659, 0.0514853373169899, 33274, 32168, 23228, NaN
1472342547.128, 0.00500189466401935, -0.0474507063627243, 0.0520048923790455, 33289, 32168, 23228, NaN
1472342548.136, 0.00378246023319662, -0.0469060465693474, 0.0518065541982651, 33288, 32167, 23221, NaN
1472342549.136, 0.00291325966827571, -0.0468125939369202, 0.0514178089797497, 33271, 32164, 23216, NaN
1472342550.136, 0.00241696857847273, -0.0466212183237076, 0.0512887313961983, 33291, 32174, 23217, NaN
1472342551.136, 0.00207109563052654, -0.0472417287528515, 0.0513468459248543, 33298, 32154, 23220, NaN
1472342552.136, 0.00155812629964203, -0.0470010451972485, 0.0516889840364456, 33291, 32159, 23218, NaN
1472342553.136, 0.000860005500726402, -0.0472257174551487, 0.0522933602333069, 33279, 32165, 23229, NaN
1472342554.136, 0.000384798069717363, -0.0469814762473106, 0.0527843981981277, 33278, 32162, 23229, NaN
1472342555.136, 8.78923819982447e-05, -0.0470592752099037, 0.0518776923418045, 33286, 32180, 23214, NaN
1472342556.136, 0.000111015615402721, -0.0469433292746544, 0.0520862378180027, 33287, 32161, 23227, NaN
1472342557.136, 4.43331555288751e-05, -0.0469475202262402, 0.0521012730896473, 33291, 32171, 23217, NaN
1472342558.136, 3.0179518944351e-05, -0.0465361289680004, 0.0521791912615299, 33288, 32180, 23219, NaN
1472342559.136, 0.00013005944492761, -0.0466432571411133, 0.052026055753231, 33283, 32163, 23222, NaN
1472342560.136, 0.000344740779837593, -0.0464261211454868, 0.0526398085057735, 33278, 32159, 23227, NaN
1472342561.136, 0.000752926280256361, -0.0471981503069401, 0.0533471442759037, 33277, 32175, 23235, NaN
1472342562.136, 0.00102748768404126, -0.0470046140253544, 0.0533615127205849, 33280, 32169, 23229, NaN
1472342563.136, 0.00116845383308828, -0.0471126437187195, 0.0532293878495693, 33284, 32173, 23218, NaN
1472342564.136, 0.00135927624069154, -0.0477744564414024, 0.0531080104410648, 33282, 32165, 23225, NaN
1472342565.136, 0.00156779470853508, -0.0478877983987331, 0.053837351500988, 33300, 32170, 23204, NaN
1472342566.136, 0.00176584371365607, -0.0478472337126732, 0.0531906895339489, 33287, 32164, 23224, 39.6122894287109
1472342567.136, 0.00213803490623832, -0.0489237084984779, 0.052922435104847, 33291, 32163, 23217, NaN
1472342568.136, 0.00269209919497371, -0.0481180660426617, 0.0519030801951885, 33291, 32171, 23227, NaN
1472342569.136, 0.00520544731989503, -0.0476255305111408, 0.0520639196038246, 33284, 32169, 23223, NaN
1472342570.136, 0.0107302572578192, -0.0475452616810799, 0.0521107017993927, 33290, 32173, 23213, NaN
1472342571.136, 0.020083200186491, -0.0475685633718967, 0.0513987876474857, 33275, 32172, 23228, NaN
1472342572.136, 0.0172749944031239, -0.0479434058070183, 0.0514970310032368, 33295, 32170, 23229, NaN
1472342573.136, 0.012236338108778, -0.0488556399941444, 0.0511741749942303, 33290, 32177, 23221, NaN
1472342574.136, 0.00784992519766092, -0.0488268882036209, 0.0517595112323761, 33283, 32168, 23226, NaN
1472342575.136, 0.00407556770369411, -0.0491429530084133, 0.051538098603487, 33295, 32164, 23213, NaN
1472342576.136, 0.000872077245730907, -0.0490718521177769, 0.052628256380558, 33291, 32164, 23224, NaN
1472342577.136, -0.00180239521432668, -0.0492132902145386, 0.0533201955258846, 33288, 32173, 23211, NaN
1472342578.144, -0.00399000942707062, -0.0500093922019005, 0.0532297305762768, 33283, 32169, 23221, NaN
1472342579.144, -0.00573288090527058, -0.0496331267058849, 0.053438238799572, 33293, 32166, 23214, NaN
1472342580.144, -0.00707272812724113, -0.0500413924455643, 0.0533143915235996, 33292, 32155, 23210, NaN
1472342581.144, -0.00805054325610399, -0.0496469400823116, 0.0530790127813816, 33302, 32172, 23214, NaN
1472342581.144, -0.00870627630501986, -0.0494053363800049, 0.0513320565223694, 33298, 32178, 23223, NaN
1472342582.152, -0.00907855201512575, -0.0504323728382587, 0.0503282770514488, 33287, 32165, 23214, NaN
1472342583.152, -0.00920441932976246, -0.0505771115422249, 0.0499819926917553, 33283, 32164, 23214, NaN
1472342584.152, -0.00911912880837917, -0.0508723370730877, 0.0501680262386799, 33286, 32161, 23229, NaN
1472342585.152, -0.00885595101863146, -0.0501438677310944, 0.0507103838026524, 33292, 32169, 23212, NaN
1472342585.152, -0.00844602938741446, -0.0501592755317688, 0.0499623119831085, 33306, 32167, 23206, NaN
1472342586.158, -0.00791826844215393, -0.0509143061935902, 0.0497077852487564, 33281, 32165, 23222, NaN
1472342587.158, -0.00729925464838743, -0.0510927103459835, 0.0490261018276215, 33283, 32173, 23225, NaN
1472342588.158, -0.00661321589723229, -0.0518943890929222, 0.0486405156552792, 33285, 32174, 23216, NaN
1472342589.158, -0.00588200660422444, -0.0523017607629299, 0.0480996929109097, 33291, 32156, 23212, NaN
1472342589.158, -0.00512512400746346, -0.0519880354404449, 0.0486176498234272, 33281, 32172, 23221, NaN
1472342590.162, -0.00435975193977356, -0.0521120652556419, 0.0481461361050606, 33288, 32165, 23227, NaN
1472342591.162, -0.00360082252882421, -0.0522780045866966, 0.0478748120367527, 33287, 32170, 23209, NaN
1472342592.162, -0.00286110443994403, -0.0533038452267647, 0.0468728728592396, 33291, 32162, 23223, NaN
1472342593.162, -0.00215130392462015, -0.054336778819561, 0.0471913628280163, 33295, 32177, 23223, NaN
1472342593.162, -0.00148018286563456, -0.054248258471489, 0.0480461120605469, 33281, 32171, 23209, NaN
1472342594.164, -0.000854684738442302, -0.0540024414658546, 0.0482580550014973, 33280, 32160, 23220, NaN
1472342595.164, -0.000280072359601036, -0.05361283197999, 0.0491892993450165, 33277, 32163, 23217, NaN
1472342596.164, 0.000239930304815061, -0.0541674643754959, 0.0494732782244682, 33291, 32163, 23210, NaN
1472342597.164, 0.000702991965226829, -0.0548095963895321, 0.0501716658473015, 33282, 32168, 23228, NaN
1472342598.164, 0.00110802717972547, -0.0546463094651699, 0.0503757707774639, 33288, 32187, 23221, NaN
1472342599.164, 0.00145505054388195, -0.0547985509037971, 0.0495924651622772, 33282, 32162, 23223, NaN
1472342600.164, 0.00174503331072628, -0.055286955088377, 0.0495137684047222, 33286, 32163, 23214, NaN
1472342601.164, 0.00197976408526301, -0.0545546300709248, 0.0489781908690929, 33298, 32162, 23213, NaN
1472342602.164, 0.00211071688681841, -0.0549891926348209, 0.04935023188591, 33281, 32171, 23219, NaN
1472342603.174, -0.000784297939389944, -0.0543612763285637, 0.0482912920415401, 33286, 32166, 23232, NaN
1472342604.174, -0.00347282458096743, -0.0540512539446354, 0.0476507991552353, 33280, 32167, 23218, NaN
1472342605.174, -0.00616123713552952, -0.0543426983058453, 0.0467517450451851, 33278, 32170, 23220, NaN
1472342606.174, -0.00864617619663477, -0.054444994777441, 0.0455732084810734, 33286, 32154, 23224, NaN
1472342607.174, -0.0111336791887879, -0.0547895208001137, 0.0462249107658863, 33282, 32162, 23229, NaN
1472342608.174, -0.0130048226565123, -0.0546752624213696, 0.0461503006517887, 33288, 32168, 23213, NaN
1472342609.174, -0.0138689801096916, -0.0548114068806171, 0.0473713800311089, 33287, 32159, 23229, NaN
1472342610.174, -0.0142975440248847, -0.0545789934694767, 0.0481081120669842, 33284, 32178, 23224, NaN
1472342611.174, -0.0138454781845212, -0.0556130409240723, 0.047722153365612, 33285, 32157, 23212, NaN
1472342612.174, -0.0132109690457582, -0.0556957088410854, 0.0478663444519043, 33287, 32161, 23215, NaN
1472342613.174, -0.0113005004823208, -0.0558019280433655, 0.048683438450098, 33291, 32164, 23220, NaN